RH
34 25 23 30 32 36 74 78 92 92 86 73 73 79 76 68 54 38 27 19 40 62 80 76 71 66 62 62 59 61 66 58 53 30 18 31 44 46 41 45 44 43 38 36 37
44 31 29 35 36 30 30 32 40 44 54 62 55 71 75 69 64 51 38 26 22 60 71 80 75 72 67 63 69 66 62 59 57 42 25 25 35 44 45 44 43 43 42 41 40
48 49 34 40 35 32 30 32 31 29 45 49 52 81 95 85 69 52 46 34 20 32 57 81 88 80 73 69 73 70 58 58 61 54 39 18 30 33 41 44 44 42 42 39 38
58 58 35 47 48 52 53 47 57 59 68 70 69 67 84 91 81 65 54 45 26 22 39 72 93 87 78 71 75 77 61 57 59 61 43 19 23 29 34 37 41 39 38 39 37
63 67 43 44 56 57 54 51 70 73 75 72 68 77 88 87 67 70 56 50 37 26 31 63 93 89 83 75 77 80 66 59 66 62 47 27 16 25 25 31 35 39 38 37 36
68 80 73 64 55 61 62 63 64 71 86 91 84 82 92 76 58 68 61 52 45 28 44 62 88 85 87 87 79 76 73 69 66 59 54 35 19 20 13 16 16 31 36 35 38
65 81 77 66 67 60 69 71 64 60 75 96 76 80 83 51 56 71 60 52 48 33 40 53 84 97 91 88 83 80 83 77 58 56 57 46 24 11 16 15 15 21 30 29 34
80 73 78 80 70 92 86 72 74 72 65 90 89 83 82 61 53 69 64 50 49 39 60 80 98 90 90 91 85 88 88 81 53 49 29 21 13 21 26 25 23 20 22 28 32
94 85 97 95 75 83 77 77 73 76 67 91 89 86 73 65 52 84 87 48 48 38 72 83 100 97 91 89 91 88 78 69 59 34 32 20 11 23 32 36 34 25 25 32 33
94 98 89 100 98 83 47 60 74 83 87 88 90 98 92 56 48 97 92 49 45 41 89 98 100 92 99 90 92 89 75 68 59 36 40 40 29 32 33 35 38 38 37 35 33
99 97 93 96 100 99 69 94 90 94 84 69 83 76 67 62 53 86 100 56 46 83 99 99 99 77 68 96 75 84 70 64 45 40 40 34 34 34 34 32 32 36 33 32 31
100 98 98 98 99 99 98 85 94 79 87 83 81 77 77 54 54 63 98 63 46 76 99 99 93 84 95 80 72 88 75 62 44 42 43 37 38 37 37 31 30 32 30 32 30
99 99 98 98 98 99 99 96 98 98 99 86 86 76 94 64 52 62 96 84 45 79 100 98 100 95 97 80 96 89 83 72 52 46 46 45 40 35 34 30 32 33 35 31 31
99 99 99 98 98 98 98 98 98 98 98 94 85 78 95 76 56 83 99 91 55 64 97 99 96 93 99 99 99 88 70 72 49 55 48 45 49 38 29 32 34 34 28 28 28
100 99 99 99 98 99 99 98 96 98 100 60 68 70 88 84 60 80 88 93 56 63 98 100 91 89 99 84 85 74 73 51 53 52 47 45 44 38 35 34 31 32 31 29 26
100 100 99 99 99 98 98 97 98 98 99 70 62 60 75 84 78 98 99 99 95 57 99 87 92 95 72 89 81 74 55 54 51 49 57 43 41 33 33 24 32 33 33 31 27
96 100 100 99 99 99 99 98 98 98 98 98 88 88 85 92 85 97 98 98 94 97 97 99 89 95 96 96 82 56 59 57 60 62 66 38 45 27 26 24 29 30 32 31 29
68 84 93 100 99 99 98 99 98 98 98 99 97 100 95 89 78 88 100 100 99 81 91 91 96 95 98 89 60 57 56 52 64 72 56 44 40 27 29 27 29 32 36 36 34
58 58 76 100 99 99 99 98 99 98 96 98 99 97 95 92 95 100 100 100 100 82 73 72 82 90 61 64 57 58 52 51 52 56 60 43 36 31 31 28 25 31 34 38 40
45 60 81 100 100 99 99 99 99 98 94 99 99 99 100 99 99 100 100 100 96 75 71 72 65 88 56 55 55 51 47 51 51 62 60 48 41 36 34 34 32 30 32 40 44
50 65 86 96 100 100 99 100 99 99 97 92 98 100 97 98 98 99 100 98 95 76 66 60 56 63 60 54 55 51 49 48 48 51 57 60 40 36 33 32 32 33 37 44 40
57 75 98 100 100 100 100 100 89 94 98 97 94 98 100 95 100 99 92 91 80 77 66 56 50 56 54 51 53 52 49 48 44 46 44 45 39 35 33 32 34 40 45 42 42
84 94 99 99 100 100 100 98 99 99 100 100 87 87 88 82 95 95 76 75 74 65 66 53 49 62 63 56 54 52 51 49 48 45 45 49 38 33 31 30 34 44 44 48 50
89 91 92 95 94 100 99 100 100 100 99 99 92 87 94 95 87 83 79 63 61 60 71 58 58 47 55 53 52 54 50 50 51 51 48 45 40 38 36 36 42 46 48 48 44
59 87 89 87 87 100 96 99 99 99 99 100 99 80 88 86 75 71 70 65 64 57 67 68 60 57 51 51 48 46 44 48 54 52 50 45 42 41 44 48 46 47 48 40 52
67 73 83 97 94 97 94 99 94 97 90 96 93 84 71 69 68 67 63 60 60 68 66 63 57 53 54 51 51 56 57 57 55 53 51 50 48 43 29 38 44 47 52 55 55
50 73 86 93 90 81 74 88 98 95 97 98 100 95 84 60 52 62 66 68 63 65 64 61 56 54 48 47 42 34 38 46 50 48 46 47 36 36 47 50 51 50 50 52 60
Wind_Speed
27 25 26 29 32 38 45 46 47 46 44 43 39 39 35 41 47 50 54 48 48 46 41 37 34 29 26 20 17 16 17 18 16 11 12 10 7 7 15 13 14 12 11 12 14
26 23 25 25 27 28 34 39 43 43 41 40 39 37 41 37 46 54 49 44 45 50 43 40 36 31 29 26 22 19 21 18 14 14 15 15 12 12 15 17 13 12 15 17 18
22 22 21 21 21 23 26 28 30 31 30 33 36 32 32 37 45 53 46 42 42 47 44 41 37 33 30 26 24 23 25 16 15 15 18 20 19 19 18 17 14 16 17 18 19
24 21 17 20 20 20 22 22 23 26 29 29 31 34 36 35 32 43 43 40 39 45 46 43 41 36 35 33 25 26 23 18 19 16 20 21 25 26 22 21 17 17 18 19 17
24 20 17 19 20 18 17 21 22 25 27 27 28 30 33 39 43 16 39 42 39 45 46 40 42 39 35 33 27 28 23 20 19 18 20 23 27 28 29 21 22 22 20 16 18
22 17 18 17 19 20 19 19 21 23 28 27 22 26 33 41 36 25 19 41 42 46 43 40 37 38 33 31 30 26 23 23 21 18 21 23 27 30 25 18 24 29 27 18 17
23 19 18 18 17 18 19 20 21 20 24 24 25 27 30 34 28 33 22 33 42 43 41 37 32 34 33 27 28 27 24 24 25 21 23 23 28 27 8 20 27 26 27 23 21
22 18 15 14 17 16 18 19 21 20 21 23 21 24 33 25 24 38 38 28 43 43 37 32 33 30 32 27 20 24 22 23 20 17 21 19 27 7 12 14 18 22 24 21 19
19 17 12 13 12 20 16 19 19 19 22 21 23 25 32 25 32 34 31 32 44 44 41 38 36 38 30 29 22 21 18 15 15 11 12 15 17 9 11 12 13 16 19 18 16
18 16 14 12 14 11 13 13 16 21 22 26 26 21 23 24 31 37 26 36 49 48 43 40 46 42 38 32 26 21 19 19 18 7 9 15 16 9 8 17 18 17 17 17 17
15 13 12 11 13 14 16 18 22 23 28 31 22 30 12 18 32 38 30 39 53 55 52 35 45 43 42 36 29 20 19 17 13 8 16 15 19 15 12 15 17 23 20 19 19
15 11 10 9 11 11 17 20 22 25 27 27 21 25 11 22 32 37 33 40 56 62 45 37 44 44 41 35 32 26 23 19 11 8 12 14 16 17 20 20 17 13 16 17 15
17 12 6 7 9 13 18 13 11 17 23 28 25 24 15 24 31 42 41 37 54 56 48 43 25 39 36 37 35 26 28 23 19 11 14 20 28 26 27 22 17 14 14 14 14
17 12 9 7 10 11 14 10 16 14 12 16 21 26 19 25 31 40 36 34 45 60 51 27 41 38 31 34 30 28 25 20 16 14 13 10 9 19 15 19 16 13 12 12 12
17 18 8 10 9 9 11 12 14 25 7 18 23 27 21 31 35 43 44 35 46 60 42 25 33 32 28 36 28 26 19 15 15 17 19 21 12 9 15 22 19 15 12 11 11
12 16 8 21 17 13 10 14 25 10 3 18 24 25 29 33 33 41 40 32 33 45 46 31 25 26 43 23 29 20 14 14 15 16 7 25 19 12 17 13 16 17 14 12 13
13 12 19 19 17 3 11 22 11 8 13 16 28 29 34 34 37 39 36 28 35 44 40 22 31 30 30 30 24 23 16 2 3 3 6 6 12 26 7 9 6 12 11 10 12
17 14 15 19 17 11 6 14 8 8 8 12 25 32 35 36 36 39 31 32 40 39 41 20 18 31 25 31 29 26 24 9 6 4 4 7 9 8 6 10 14 13 13 11 11
15 14 11 14 7 18 6 12 3 8 19 20 31 38 22 30 30 35 20 39 38 44 29 20 15 37 21 31 27 28 27 23 7 9 3 6 10 15 12 7 13 18 16 13 10
11 9 9 10 5 9 19 10 6 12 23 28 15 13 33 31 22 25 14 30 38 41 32 17 12 34 20 25 24 21 25 17 12 3 4 5 9 13 4 6 9 12 14 13 9
8 8 9 5 2 6 6 1 7 17 23 17 10 17 31 32 20 28 10 27 37 35 33 22 19 24 29 27 31 28 20 20 10 9 3 2 4 3 7 9 3 5 7 8 8
8 5 6 0 4 1 10 2 20 24 12 13 15 20 33 27 24 7 26 14 36 34 19 22 15 25 27 19 28 29 25 24 14 7 7 3 6 3 1 4 8 5 6 7 12
6 6 5 3 2 4 7 14 22 8 15 20 22 27 25 31 14 17 30 29 37 33 15 24 10 15 14 21 20 30 30 25 25 15 10 5 4 5 5 3 8 10 7 10 14
6 6 7 9 4 7 4 5 13 19 22 26 31 26 32 19 15 26 26 28 34 31 20 25 14 18 22 21 27 31 35 32 30 22 18 20 11 5 4 7 11 12 15 19 30
11 7 7 4 6 12 3 5 15 29 21 26 28 33 26 12 22 29 26 29 28 34 19 14 9 12 18 13 19 27 32 34 32 31 21 20 19 13 11 13 15 21 28 28 15
13 11 8 8 16 14 9 7 7 28 31 27 26 24 23 18 16 26 24 27 29 26 27 16 9 13 16 17 15 16 19 28 29 28 28 27 26 20 21 16 13 14 14 16 19
12 11 10 12 18 15 12 12 14 16 25 28 19 19 23 25 17 12 16 19 17 23 22 18 15 16 7 12 10 11 20 21 24 26 25 25 21 17 17 15 15 17 19 21 21
Wind_Direction
302 291 280 267 260 253 250 247 253 256 256 255 253 249 238 233 231 230 230 226 224 228 222 224 229 230 233 233 239 251 253 264 276 282 257 229 219 178 187 198 224 237 251 269 276
297 288 278 267 264 261 258 253 250 251 251 248 249 246 245 235 232 230 227 224 219 226 221 222 226 228 233 236 238 239 252 263 280 281 270 229 231 225 211 206 217 238 251 259 264
293 290 279 273 261 257 253 249 245 245 244 242 238 238 235 236 233 229 228 222 215 222 221 222 221 223 227 231 233 239 247 263 273 283 278 250 228 241 236 217 229 239 255 267 264
299 297 283 271 261 259 254 246 248 235 237 235 234 234 230 232 235 235 225 221 213 217 218 219 217 219 224 228 231 237 246 261 272 273 272 262 240 237 242 234 246 256 265 261 268
305 297 278 265 257 253 250 237 238 240 238 231 231 233 231 228 216 217 222 217 209 213 215 215 216 218 225 227 230 241 250 258 274 270 275 273 248 252 240 251 257 256 264 263 258
307 294 275 265 254 253 247 244 243 245 240 228 223 230 229 232 213 215 213 212 210 208 211 211 214 219 227 230 234 244 255 261 263 267 273 275 261 254 246 261 257 248 253 255 256
306 293 282 268 266 261 262 252 243 241 240 225 224 225 230 226 215 213 198 200 205 207 206 210 211 214 222 232 240 246 252 258 258 276 279 278 266 247 250 233 245 239 244 245 246
308 298 293 279 270 271 260 255 242 235 230 224 214 224 235 222 209 206 210 197 197 200 191 202 201 208 213 219 234 236 250 261 259 277 272 263 264 213 220 236 246 242 241 241 248
304 293 288 285 259 274 252 250 239 230 218 217 215 221 234 213 206 191 208 195 191 193 187 192 198 208 212 215 221 231 240 253 275 279 269 254 266 212 214 232 225 233 233 243 259
309 294 270 268 280 260 233 224 227 221 211 204 213 219 226 210 196 188 192 189 186 185 188 202 198 200 208 213 212 218 232 251 266 273 244 264 269 222 227 236 233 232 240 253 269
315 300 270 251 275 257 211 211 209 208 205 208 209 210 224 201 195 190 181 187 184 185 191 190 195 204 210 207 221 227 230 252 260 290 268 277 269 256 259 256 254 247 256 264 279
319 303 272 250 270 243 224 221 214 210 209 209 213 202 216 200 193 190 184 188 187 187 188 195 208 212 208 218 223 229 228 241 271 313 290 278 272 268 267 270 259 258 255 272 270
342 316 273 241 243 235 237 229 191 204 205 198 203 201 195 194 192 187 187 191 190 186 191 201 202 199 211 213 225 221 232 241 259 301 283 280 286 270 259 263 244 255 269 265 261
326 331 310 281 254 232 253 216 169 174 195 190 207 192 180 177 192 193 177 178 191 189 189 208 204 201 205 213 213 226 232 241 254 287 287 291 288 291 264 238 236 250 246 248 255
315 331 304 320 288 217 252 164 163 171 174 187 181 182 181 180 187 190 183 183 197 189 189 193 200 211 213 214 211 220 228 241 258 264 281 270 278 277 244 233 231 236 242 239 232
317 317 329 332 338 190 231 191 181 207 176 164 184 191 190 185 189 188 184 177 199 195 198 205 198 212 212 200 209 218 235 230 247 267 267 267 238 271 248 250 229 230 232 230 228
323 320 298 298 334 231 194 165 205 237 156 180 189 185 186 173 187 191 187 184 175 173 188 194 207 206 202 217 199 207 204 215 251 237 228 270 218 233 261 293 256 228 227 233 234
307 320 325 319 293 287 137 179 250 149 180 178 168 175 171 175 184 183 198 185 181 183 174 178 190 191 203 204 200 204 206 191 203 208 257 213 237 248 247 230 214 228 224 239 243
299 315 331 339 323 239 240 225 247 160 150 139 150 165 184 189 170 178 190 172 176 176 172 177 186 194 199 196 205 197 208 221 288 286 281 228 257 263 262 247 223 221 223 233 242
290 301 319 356 49 149 214 248 192 182 161 152 146 145 153 171 159 190 160 161 160 182 181 180 148 189 186 199 207 216 217 213 222 244 248 266 265 245 291 239 225 218 224 226 245
277 289 319 1 341 127 211 136 167 160 155 164 175 146 164 159 171 167 147 154 167 167 186 188 190 180 200 203 205 203 207 209 213 235 201 296 271 266 283 252 206 207 222 231 260
271 271 306 115 12 177 122 130 144 155 179 197 171 156 161 156 173 131 151 157 162 171 166 177 191 174 193 205 210 217 220 215 215 219 223 246 288 259 354 152 159 206 212 253 263
243 253 261 232 354 151 120 136 162 229 136 158 167 162 155 159 166 164 163 159 167 176 177 185 195 159 183 213 213 218 218 223 224 239 227 183 266 267 264 269 203 199 239 260 268
234 277 264 231 258 177 108 117 126 158 135 139 154 161 155 166 152 155 157 165 171 178 189 189 189 197 195 211 214 213 221 226 233 236 236 236 254 274 261 232 198 215 247 268 291
241 255 260 263 179 166 166 79 121 154 148 146 147 167 166 153 145 161 163 171 181 192 205 190 204 197 203 203 213 226 230 227 231 235 234 258 255 250 239 243 248 260 268 284 278
226 251 230 168 158 168 142 153 127 163 168 156 160 155 159 164 151 165 174 178 183 193 201 212 201 194 188 196 208 218 224 226 233 237 242 249 260 277 272 256 254 263 270 275 285
220 209 176 172 173 174 182 152 163 152 173 149 174 154 164 155 168 190 194 190 197 197 199 209 212 198 200 207 220 250 226 225 231 238 246 251 264 246 250 255 267 277 286 291 294